Weather History for TGPY - June, 2013

Change the Weather History Date:

Wednesday, June 12, 2013

  Actual Average Record
Temperature  
Mean Temperature 82 °F -  
Max Temperature 86 °F 84 °F 90 °F (2014)
Min Temperature 77 °F 76 °F 75 °F (1999)
Cooling Degree Days 16    
Growing Degree Days 32 (Base 50)    
Moisture  
Dew Point 76 °F    
Average Humidity 81    
Maximum Humidity 100    
Minimum Humidity 66    
Precipitation  
Precipitation 0.12 in - - ()
Sea Level Pressure  
Sea Level Pressure 29.97 in    
Wind  
Wind Speed 16 mph ()    
Max Wind Speed 23 mph    
Max Gust Speed -    
Visibility 6.2 miles    
Events Rain    
Averages and records for this station are not official NWS values.
T = Trace of Precipitation, MM = Missing Value Source: Averaged Metar Reports

Daily Weather History Graph

Daily Weather History Graph

Search for Another Location

Airport or City:

Trip Planner

Search our weather history database for the weather conditions in past years. The results will help you decide how hot, cold, wet, or windy it might be!

Date:

Astronomy

Jun. 12, 2013 Rise Set
Actual Time 5:42 AM AST 6:31 PM AST
Civil Twilight 5:19 AM AST 6:55 PM AST
Nautical Twilight 4:51 AM AST 7:22 PM AST
Astronomical Twilight 4:23 AM AST 7:50 PM AST
Moon 8:51 AM AST (6/12) 9:36 PM AST (6/12)
Length of Visible Light 13h 35m
Length of Day
12h 49m
Waxing Crescent, 14% of the Moon is Illuminated
Jun 12
Waxing Crescent
Jun 16
First Quarter
Jun 23
Full
Jun 30
Last Quarter
Jul 8
New

Hourly Weather History & Observations

Time (AST) Temp. Heat Index Dew Point Humidity Pressure Visibility Wind Dir Wind Speed Gust Speed Precip Events Conditions
12:00 AM 82.4 °F 89.5 °F 75.2 °F 79% 29.98 in 6.2 mi ESE 17.3 mph - N/A   Scattered Clouds
1:00 AM 80.6 °F 86.2 °F 75.2 °F 84% 29.98 in 4.3 mi East 16.1 mph - N/A   Scattered Clouds
2:00 AM 80 °F - 76 °F 86% 29.96 in 6 mi East 17.3 mph - - Rain Light Rain Showers
2:00 AM 80.6 °F 87.1 °F 77.0 °F 89% 29.95 in 6.2 mi East 17.3 mph - N/A   Mostly Cloudy
3:00 AM 80.6 °F 87.1 °F 77.0 °F 89% 29.95 in 6.2 mi East 18.4 mph - N/A   Scattered Clouds
4:00 AM 80.6 °F 87.1 °F 77.0 °F 89% 29.95 in 6.2 mi East 16.1 mph - N/A   Scattered Clouds
5:00 AM 81 °F - 76 °F 82% 29.97 in 5 mi East 15.0 mph - -   Partly Cloudy
5:00 AM 80.6 °F 87.1 °F 77.0 °F 89% 29.95 in 5.0 mi East 15.0 mph - N/A   Scattered Clouds
6:00 AM 80.6 °F 86.2 °F 75.2 °F 84% 29.98 in 6.2 mi East 15.0 mph - N/A   Mostly Cloudy
7:00 AM 80.6 °F 87.1 °F 77.0 °F 89% 29.98 in 6.2 mi East 13.8 mph - N/A Rain Light Rain Showers
8:00 AM 83 °F - 76 °F 74% 29.99 in 6 mi East 17.3 mph - - Rain Light Rain Showers
8:00 AM 84.2 °F 92.3 °F 75.2 °F 74% 29.98 in 6.2 mi East 17.3 mph - N/A   Mostly Cloudy
9:00 AM 84.2 °F 92.3 °F 75.2 °F 74% 30.01 in 6.2 mi East 20.7 mph - N/A   Scattered Clouds
10:00 AM 86.0 °F 96.9 °F 77.0 °F 74% 30.01 in 6.2 mi ESE 21.9 mph - N/A   Scattered Clouds
11:00 AM 86 °F - 76 °F 66% 30.01 in 8 mi ESE 18.4 mph - -   Widespread Dust
11:00 AM 86.0 °F 96.9 °F 77.0 °F 74% 30.01 in 6.2 mi ESE 18.4 mph - N/A   Scattered Clouds
12:00 PM 86.0 °F 96.9 °F 77.0 °F 74% 30.01 in 6.2 mi ESE 20.7 mph - N/A   Scattered Clouds
1:00 PM 86.0 °F 95.1 °F 75.2 °F 70% 29.98 in 6.2 mi ESE 23.0 mph - N/A   Mostly Cloudy
2:00 PM 85 °F - 76 °F 67% 29.97 in 8 mi ESE 23.0 mph - -   Scattered Clouds
2:00 PM 86.0 °F 95.1 °F 75.2 °F 70% 29.95 in 6.2 mi ESE 23.0 mph - N/A   Mostly Cloudy
3:00 PM 84.2 °F 92.3 °F 75.2 °F 74% 29.95 in 6.2 mi East 18.4 mph - N/A   Mostly Cloudy
4:00 PM 84.2 °F 92.3 °F 75.2 °F 74% 29.92 in 6.2 mi East 17.3 mph - N/A   Mostly Cloudy
5:00 PM 85 °F - 76 °F 68% 29.93 in 8 mi East 20.7 mph - -   Widespread Dust
5:00 PM 84.2 °F 92.3 °F 75.2 °F 74% 29.92 in 6.2 mi East 20.7 mph - N/A   Mostly Cloudy
6:00 PM 82.4 °F 89.5 °F 75.2 °F 79% 29.92 in 6.2 mi East 16.1 mph - N/A   Mostly Cloudy
7:00 PM 80.6 °F 87.1 °F 77.0 °F 89% 29.95 in 6.2 mi East 11.5 mph - N/A   Mostly Cloudy
8:00 PM 80 °F - 77 °F 89% 29.98 in 6 mi East 18.4 mph - - Rain Light Rain Showers
8:00 PM 80.6 °F 87.1 °F 77.0 °F 89% 29.98 in 6.2 mi East 18.4 mph - N/A Rain Light Rain Showers
9:00 PM 78.8 °F - 77.0 °F 94% 29.98 in 6.2 mi East 13.8 mph - N/A   Mostly Cloudy
10:00 PM 77.0 °F - 75.2 °F 94% 29.98 in 5.6 mi East 17.3 mph - N/A Rain Rain Showers
11:00 PM 78 °F - 77 °F 95% 30.00 in 6 mi East 13.8 mph - - Rain Light Rain Showers
11:00 PM 77.0 °F - 77.0 °F 100% 30.01 in 5.6 mi East 13.8 mph - N/A Rain Light Rain Showers